Location: *
(58.7167°N, 26.1833°E)
Time: 18:18:03
(UTC+00:00)

Cosmos 2082 Rocket - Pass Details

Date: 25 August 2019
Orbit: 831 x 855 km, 71.0° (Epoch: 18 October)

Event Time Altitude Azimuth Distance (km) Brightness Sun altitude
Rises 21:14:49 0° 240° (WSW) 3,390 5.2 -19.5°
Reaches altitude 10° 21:17:20 10° 246° (WSW) 2,461 4.5 -19.6°
Maximum altitude 21:22:48 49° 321° (NW) 1,093 3.1 -19.8°
Drops below altitude 10° 21:28:20 10° 36° (NE) 2,487 5.2 -20.0°
Sets 21:30:54 0° 42° (NE) 3,429 5.9 -20.0°
